Date,TemperatureHighF,TemperatureAvgF,TemperatureLowF,DewpointHighF,DewpointAvgF,DewpointLowF,HumidityHigh,HumidityAvg,HumidityLow,PressureMaxIn,PressureMinIn,WindSpeedMaxMPH,WindSpeedAvgMPH,GustSpeedMaxMPH,PrecipitationSumIn
2014-1-1,30,28,23,30,28,23,100,100,100,0.00,40.00,10,4,13,0.00
2014-1-2,31,30,30,31,30,30,100,100,100,0.00,40.00,8,3,12,0.00
2014-1-3,49,37,27,34,27,19,100,71,35,0.00,40.00,14,7,22,0.02
2014-1-4,44,29,17,26,21,-100,100,74,39,0.00,40.00,9,4,12,0.01
2014-1-5,40,26,16,24,19,16,100,77,39,0.00,40.00,7,3,9,0.00
2014-1-6,34,26,20,21,18,17,97,74,50,0.00,40.00,8,4,10,0.00
2014-1-7,32,29,24,31,28,20,100,96,76,0.00,40.00,7,3,11,0.10
2014-1-8,31,29,26,31,29,26,100,100,100,0.00,40.00,8,3,11,0.04
2014-1-9,42,35,28,37,33,28,100,92,66,0.00,40.00,11,5,23,0.01
2014-1-10,53,44,33,37,34,30,100,69,45,0.00,40.00,12,6,19,0.01
2014-1-11,56,48,41,39,33,-100,74,57,39,0.00,40.00,27,16,47,0.00
2014-1-12,51,44,40,38,32,26,73,61,51,0.00,40.00,19,9,34,0.00
2014-1-13,57,50,45,37,35,33,70,57,42,0.00,40.00,19,12,29,0.00
2014-1-14,55,42,34,40,36,32,100,79,48,0.00,40.00,11,5,18,0.00
2014-1-15,48,37,29,37,34,29,100,88,60,0.00,40.00,11,5,16,0.00
2014-1-16,44,32,24,35,30,24,100,92,65,0.00,40.00,5,2,7,0.00
2014-1-17,37,27,21,33,27,21,100,99,83,0.00,40.00,8,3,11,0.00
2014-1-18,30,28,24,30,27,-100,100,99,100,0.00,40.00,3,2,5,0.00
2014-1-19,31,30,29,31,30,29,100,100,100,0.00,40.00,4,2,9,0.00
2014-1-20,32,31,30,32,31,30,100,100,99,0.00,40.00,5,2,9,0.00
2014-1-21,31,30,29,31,30,29,100,100,98,0.00,40.00,5,2,7,0.01
2014-1-22,32,30,29,31,29,28,100,96,84,0.00,40.00,5,2,9,0.01
2014-1-23,33,31,30,32,31,30,100,99,96,0.00,40.00,8,4,12,0.00
2014-1-24,30,30,29,30,30,29,100,100,100,0.00,40.00,5,3,7,0.00
2014-1-25,30,28,28,30,28,-100,100,100,100,0.00,40.00,4,2,6,0.00
2014-1-26,31,29,27,30,28,26,100,95,83,0.00,40.00,5,2,8,0.01
2014-1-27,33,31,29,32,30,29,100,96,85,0.00,40.00,7,3,9,0.01
2014-1-28,34,32,30,32,31,30,100,97,89,0.00,40.00,5,3,8,0.00
2014-1-29,33,32,30,33,32,30,100,100,100,0.00,40.00,9,5,14,0.28
2014-1-30,35,31,29,35,31,29,100,100,100,0.00,40.00,6,4,10,0.11
2014-1-31,37,32,28,32,28,16,100,86,61,0.00,40.00,8,3,10,0.01
2014-2-1,29,26,23,23,18,-100,88,73,61,0.00,40.00,6,3,9,0.01
2014-2-2,31,28,24,22,20,16,82,71,63,0.00,40.00,14,7,19,0.00
2014-2-3,32,28,23,25,17,12,84,63,45,0.00,40.00,11,8,16,0.00
2014-2-4,24,20,12,17,3,-4,76,48,39,0.00,40.00,17,13,25,0.00
2014-2-5,18,12,8,-4,-7,-10,52,41,34,0.00,40.00,18,13,25,0.00
2014-2-6,19,13,6,14,-3,-9,91,50,34,0.00,40.00,15,11,22,0.00
2014-2-7,23,16,8,14,11,6,97,82,65,0.00,40.00,15,7,20,0.00
2014-2-8,26,22,17,22,14,10,100,71,54,0.00,40.00,15,8,23,0.00
2014-2-9,30,24,21,25,22,20,100,92,73,0.00,40.00,14,4,19,0.01
2014-2-10,29,25,19,27,24,19,100,96,83,0.00,40.00,7,3,10,0.01
2014-2-11,39,28,17,37,27,17,100,94,76,0.00,40.00,9,4,15,0.10
2014-2-12,56,46,36,43,37,30,100,74,45,0.00,40.00,20,10,30,0.15
2014-2-13,55,46,36,40,33,28,96,64,35,0.00,40.00,19,10,29,0.00
2014-2-14,55,43,36,43,36,31,100,78,48,0.00,40.00,20,7,33,0.07
2014-2-15,40,35,31,40,34,-100,100,98,84,0.00,40.00,11,6,24,0.22
2014-2-16,51,42,35,38,31,22,100,68,32,0.00,40.00,18,10,27,0.01
2014-2-17,54,45,35,43,34,29,100,67,50,0.00,40.00,16,11,27,0.02
2014-2-18,53,42,33,42,34,28,90,74,57,0.00,40.00,21,10,33,0.01
2014-2-19,48,40,32,28,25,23,81,57,37,0.00,40.00,22,12,32,0.00
2014-2-20,54,42,32,34,29,25,84,62,38,0.00,40.00,24,11,38,0.00
2014-2-21,47,41,34,27,23,20,63,50,35,0.00,40.00,12,7,24,0.00
2014-2-22,41,35,29,28,22,-100,83,61,37,0.00,40.00,8,4,12,0.00
2014-2-23,38,34,32,34,32,28,100,92,79,0.00,40.00,10,6,13,0.00
2014-2-24,35,32,30,32,30,27,100,91,71,0.00,40.00,11,8,18,0.02
2014-2-25,38,33,29,30,24,19,100,72,46,0.00,40.00,14,9,21,0.01
2014-2-26,42,34,28,30,23,18,84,63,47,0.00,40.00,12,6,17,0.00
2014-2-27,43,37,32,36,30,25,100,78,48,0.00,40.00,7,4,11,0.00
2014-2-28,50,38,31,39,31,15,100,79,46,0.00,40.00,23,6,37,0.00
2014-3-1,34,26,22,15,6,-100,60,44,35,0.00,40.00,23,14,37,0.00
2014-3-2,25,23,22,24,18,10,100,81,60,0.00,40.00,7,5,12,0.00
2014-3-3,35,27,20,30,26,20,100,96,80,0.00,40.00,7,3,10,0.17
2014-3-4,62,40,26,42,34,26,100,84,41,0.00,40.00,9,4,17,0.01
2014-3-5,65,53,44,52,46,39,96,78,53,0.00,40.00,16,7,26,0.26
2014-3-6,58,52,42,49,38,35,80,61,44,0.00,40.00,22,13,34,0.03
2014-3-7,63,50,41,39,34,30,82,59,30,0.00,40.00,13,8,20,0.00
2014-3-8,56,44,34,44,35,-100,92,76,57,0.00,40.00,13,4,24,0.00
2014-3-9,65,57,48,48,42,38,85,59,39,0.00,40.00,15,10,22,0.00
2014-3-10,60,51,42,40,35,24,81,58,25,0.00,40.00,19,11,31,0.00
2014-3-11,61,48,37,30,26,21,66,46,21,0.00,40.00,14,6,21,0.00
2014-3-12,61,46,30,34,29,25,89,55,29,0.00,40.00,7,4,11,0.00
2014-3-13,63,48,35,34,31,28,79,54,29,0.00,40.00,7,4,12,0.00
2014-3-14,61,51,41,44,35,28,79,57,30,0.00,40.00,26,11,40,0.00
2014-3-15,66,50,39,36,30,-100,70,49,22,0.00,40.00,10,6,16,0.00
2014-3-16,68,57,46,43,37,-100,67,51,36,0.00,40.00,20,10,29,0.00
2014-3-17,56,48,39,36,24,13,67,43,19,0.00,40.00,23,14,36,0.00
2014-3-18,58,44,28,27,22,16,75,44,19,0.00,40.00,10,6,24,0.00
2014-3-19,62,47,36,33,28,21,70,50,31,0.00,40.00,24,9,39,0.00
2014-3-20,56,44,33,26,20,12,64,41,17,0.00,40.00,16,10,32,0.00
2014-3-21,53,40,28,26,18,11,74,45,19,0.00,40.00,9,5,16,0.00
2014-3-22,57,40,25,24,17,-100,83,46,19,0.00,40.00,11,4,17,0.00
2014-3-23,59,46,33,29,24,18,71,44,26,0.00,40.00,9,5,16,0.00
2014-3-24,66,57,45,31,26,21,56,32,18,0.00,40.00,9,5,21,0.00
2014-3-25,62,50,42,36,29,25,52,45,30,0.00,40.00,13,8,27,0.00
2014-3-26,59,50,39,38,33,30,77,55,35,0.00,40.00,13,6,23,0.00
2014-3-27,61,50,40,38,33,29,78,56,29,0.00,40.00,16,7,24,0.00
2014-3-28,51,45,35,48,40,30,94,85,60,0.00,40.00,12,6,22,0.40
2014-3-29,61,50,41,45,35,-100,95,61,36,0.00,40.00,18,10,28,0.02
2014-3-30,60,47,35,35,29,22,84,54,25,0.00,40.00,18,10,27,0.00
2014-3-31,62,47,32,34,30,27,88,56,27,0.00,40.00,10,5,14,0.00
2014-4-1,63,51,38,34,27,-100,73,44,20,0.00,40.00,14,9,22,0.00
2014-4-2,66,52,37,33,26,19,68,41,19,0.00,40.00,13,8,33,0.00
2014-4-3,62,50,35,34,30,25,76,50,31,0.00,40.00,14,7,21,0.00
2014-4-4,62,53,43,34,31,24,64,45,26,0.00,40.00,16,10,27,0.00
2014-4-5,64,51,36,42,33,-100,85,56,30,0.00,40.00,11,7,23,0.00
2014-4-6,70,58,45,40,35,29,72,46,24,0.00,40.00,20,15,31,0.00
2014-4-7,74,60,43,43,39,35,78,50,30,0.00,40.00,11,5,17,0.00
2014-4-8,79,64,47,45,38,28,78,44,16,0.00,40.00,21,8,31,0.00
2014-4-9,66,56,44,41,26,10,61,36,11,0.00,40.00,23,11,36,0.00
2014-4-10,66,54,38,31,27,22,67,37,21,0.00,40.00,13,6,17,0.00
2014-4-11,72,57,44,35,30,27,52,38,22,0.00,40.00,19,11,29,0.00
2014-4-12,66,55,44,33,25,-100,57,35,17,0.00,40.00,17,12,25,0.00
2014-4-13,65,52,38,30,23,14,69,37,16,0.00,40.00,12,6,19,0.00
2014-4-14,66,48,33,35,24,19,68,41,17,0.00,40.00,10,4,16,0.00
2014-4-15,65,55,47,35,29,18,55,39,16,0.00,40.00,20,14,31,0.00
2014-4-16,64,55,47,42,36,33,71,50,32,0.00,40.00,12,6,20,0.01
2014-4-17,58,53,49,51,47,40,91,80,64,0.00,40.00,10,6,27,0.03
2014-4-18,62,51,41,40,29,22,72,48,22,0.00,40.00,20,12,29,0.01
2014-4-19,65,49,33,37,31,-100,85,55,27,0.00,40.00,21,7,31,0.00